Regional Weather Roundup
Issued by NWS

Home | Current Version | Previous Version | Graphics & Text | Print | Product List | Glossary On
Versions: 1 2 3 4 5 6 7 8 9 10 11 12 13 14 15 16 17 18 19 20 21 22 23 24 25 26 27 28 29 30 31 32 33 34 35 36 37 38 39 40 41 42 43 44 45 46 47 48 49 50
000
ASUS45 KABQ 051910
RWRNM
WEATHER ROUNDUP FOR NEW MEXICO
NATIONAL WEATHER SERVICE ALBUQUERQUE NM
100 PM MDT TUE MAY 05 2015

NOTE: "FAIR" MEANS FEW OR NO CLOUDS BELOW 12,000 FEET AGL WITH NO
       SIGNIFICANT WEATHER OR OBSTRUCTIONS TO VISION.

      THIS PRODUCT IS RELEASED AS TWO VERSIONS.  ONE VERSION NEAR
      THE TOP OF THE HOUR CONTAINING PRELIMINARY DATA FROM ALBUQUERQUE
      AND OTHER STATIONS.  A FINAL VERSION WITH ADDITIONAL DATA IS
      ISSUED ABOUT 10 MINUTES AFTER THE HOUR.

NMZ501-503-504-510>518-052000-
NORTHWEST PLATEAU/NORTHCENTRAL MOUNTAINS

CITY           SKY/WX    TMP DP  RH WIND       PRES   REMARKS
FARMINGTON     LGT RAIN  51  47  86 W5        29.92F
LOS ALAMOS     PTSUNNY   53  43  69 S12       29.97F
SANTA FE       LGT RAIN  48  42  80 E10       29.95S
TAOS           PTSUNNY   54  39  58 SW15G21   29.94F
ANGEL FIRE     HVY RAIN  44  38  78 SW9G22    29.95F

$$
NMZ402-403-502-505>509-052000-
WESTCENTRAL MOUNTAINS/SOUTHWEST MOUNTAINS

CITY           SKY/WX    TMP DP  RH WIND       PRES   REMARKS
GALLUP         PTSUNNY   54  43  66 SW13      29.97F
GRANTS         CLOUDY    56  39  53 W14G24    29.98F
SILVER CITY      N/A     63  34  34 W17G23    30.02F

$$
NMZ407-409-411-412-052000-
SOUTHERN DESERTS

CITY           SKY/WX    TMP DP  RH WIND       PRES   REMARKS
LORDSBURG      MOCLDY    70  36  28 W15G21    29.97F
DEMING         MOSUNNY   71  38  29 W13G23    29.97F
LAS CRUCES     MOSUNNY   71  32  24 W16G24    29.97F
HOLLOMAN AFB   MOSUNNY   72  37  27 SW12G21   29.91F
ALAMOGORDO     MOSUNNY   72  36  26 SW18G24   29.93F
T OR C         CLOUDY    66  35  31 W10       29.92F

$$
NMZ519>523-052000-
CENTRAL VALLEYS/CENTRAL HIGHLANDS

CITY           SKY/WX    TMP DP  RH WIND       PRES   REMARKS
ALBUQUERQUE    PTSUNNY   61  40  45 W14       29.93F
DOUBLE EAGLE   LGT RAIN  54  45  71 W12G24    29.96S
MORIARTY ARPT  CLOUDY    55  40  57 SW22      29.96S
CLINES CORNERS LGT RAIN  52  39  61 W13       29.95F
BELEN          CLOUDY    64  38  37 W17       29.93F THUNDER
SOCORRO        PTSUNNY   61  46  57 E7        29.92F

$$
NMZ524>526-539-540-052000-
SOUTHCENTRAL MOUNTAINS

CITY           SKY/WX    TMP DP  RH WIND       PRES   REMARKS
RUIDOSO        MOSUNNY   55  36  47 SW18      30.00F

$$
NMZ527>531-052000-
NORTHEAST HIGHLANDS/NORTHEAST PLAINS

CITY           SKY/WX    TMP DP  RH WIND       PRES   REMARKS
LAS VEGAS      TSTM      52  42  69 W18G29    29.93F
RATON          CLOUDY    59  45  59 SW18      29.88F
CLAYTON        LGT RAIN  55  52  89 S9        29.88F FOG

$$
NMZ532>537-052000-
EASTCENTRAL PLAINS

CITY           SKY/WX    TMP DP  RH WIND       PRES   REMARKS
TUCUMCARI      CLOUDY    66  52  60 S10       29.84F
CANNON AFB     LGT RAIN  64  54  68 W13       29.89F
CLOVIS AIRPORT PTSUNNY   64  50  59 S12G20    29.89F

$$
NMZ028-029-538-052000-
SOUTHEAST PLAINS

CITY           SKY/WX    TMP DP  RH WIND       PRES   REMARKS
ROSWELL        TSTM      62  51  67 SE15G31   29.85F
ARTESIA        MOSUNNY   75  52  43 S14G24    29.87F
CARLSBAD       MOSUNNY   78  41  26 SW13G18   29.86F
HOBBS          PTSUNNY   72  57  60 SW12G18   29.91F


$$


USA.gov is the U.S. government's official web portal to all federal, state and local government web resources and services.